Home   Weather   Saint Helier   Past weeks

Flag for Jersey Past Weather in Saint Helier, Jersey — Yesterday and Last 2 Weeks

Now
36 °F

Passing clouds.


Feels Like: 29 °F
Forecast: N/A
Wind: 9 mph from East

Location: Jersey Airport

Current Time: Jan 17, 2017 at 5:42:05 pm

Latest Report: Jan 17, 2017 at 4:50 pm


Visibility: N/A

Pressure: 30.57 "Hg

Humidity: 65%

Dew Point: 25 °F

Location of Saint HelierLocation

Past Weather in Saint Helier — Graph

°F

Saint Helier Temperature Yesterday

Maximum temperature yesterday: 50 °F (at 3:50 am)
Minimum temperature yesterday: 43 °F (at 6:50 pm)
Average temperature yesterday: 48 °F

High & Low Weather Summary for the Past Weeks

 TemperatureHumidityPressure
High52 °F (Jan 8, 10:20 am)100% (Jan 7, 6:50 am)30.63 "Hg (Jan 7, 6:50 am)
Low32 °F (Jan 3, 5:50 am)52% (Jan 17, 1:50 pm)29.33 "Hg (Jan 12, 3:20 pm)
Average45 °F83%30.26 "Hg
* Reported Jan 2 4:20 pm — Jan 17 4:20 pm, Saint Helier, Weather by CustomWeather, © 2017

Note: Actual official high and low records may vary slightly from our data, if they occured in-between our weather recording intervals... More about our weather records

Advertising

Saint Helier Weather History for the Previous 24 Hours

Scroll right to see more
 ConditionsComfort  
Time TempWeatherWind HumidityBarometerVisibility
4:20 pm
Tue, Jan 17
37 °FPassing clouds.8 mph60%30.57 "HgN/A
3:50 pm39 °FPassing clouds.10 mph56%30.57 "HgN/A
3:20 pm39 °FPassing clouds.7 mph61%30.57 "HgN/A
2:50 pm39 °FPassing clouds.8 mph56%30.54 "HgN/A
2:20 pm39 °FPassing clouds.10 mph61%30.54 "HgN/A
1:50 pm39 °FPassing clouds.13 mph52%30.57 "HgN/A
1:20 pm39 °FPassing clouds.15 mph56%30.54 "HgN/A
12:50 pm39 °FPassing clouds.17 mph56%30.54 "HgN/A
12:20 pm39 °FPassing clouds.10 mph56%30.57 "HgN/A
11:50 am41 °FPassing clouds.12 mph57%30.54 "HgN/A
11:20 am41 °FPassing clouds.13 mph57%30.57 "HgN/A
10:50 am39 °FPassing clouds.13 mph70%30.57 "HgN/A
10:20 am39 °FPassing clouds.14 mph75%30.57 "HgN/A
9:50 am39 °FPassing clouds.10 mph81%30.54 "HgN/A
9:20 am37 °FPassing clouds.10 mph93%30.54 "HgN/A
8:50 am36 °FPassing clouds.8 mph93%30.54 "HgN/A
8:20 am36 °FPassing clouds.8 mph93%30.51 "HgN/A
7:50 am36 °FPassing clouds.9 mph93%30.51 "HgN/A
7:20 am36 °FPassing clouds.8 mph93%30.51 "HgN/A
6:50 am34 °FPassing clouds.12 mph93%30.51 "HgN/A
6:20 am34 °FPassing clouds.10 mph93%30.48 "HgN/A
5:50 am36 °FPassing clouds.13 mph93%30.48 "HgN/A
5:20 am36 °FPassing clouds.10 mph93%30.48 "HgN/A
4:50 am36 °FPassing clouds.14 mph93%30.48 "HgN/A
4:20 am37 °FPassing clouds.15 mph93%30.48 "HgN/A
3:50 am37 °FPassing clouds.12 mph93%30.45 "HgN/A
8:20 pm
Mon, Jan 16
43 °FPartly cloudy.10 mph100%30.36 "HgN/A
7:50 pm43 °FPartly cloudy.6 mph100%30.36 "HgN/A
7:20 pm43 °FPassing clouds.7 mph100%30.36 "HgN/A
6:50 pm43 °FPartly cloudy.9 mph100%30.33 "HgN/A
6:20 pm45 °FFog.10 mph100%30.33 "Hg2 mi
5:50 pm45 °FFog.9 mph100%30.33 "Hg3 mi
5:20 pm45 °FFog.12 mph100%30.33 "Hg2 mi
Weather by CustomWeather, © 2017

See weather overviewHow to use our weather pages